Date String (YYYY-MM-DD hh:mm:ss) UTC,Instrument flags,Ambient pressure (hPa),Sample flow (lpm),Bypass flow (lpm),Sample temperature (°C),Ambient temperature (°C),ASC tube jacket temperature (°C),LED temperature (°C),Box temperature (°C),Sample RH (%),Span deviation,Mass concentration (μg/m³),Mass concentration (μg/m³),Mass concentration (μg/m³)
DateTimeUTC,F1_M11,P_M11,Q1_M11,Q2_M11,T1_M11,T2_M11,T3_M11,T4_M11,T5_M11,U1_M11,ZSPAN_M11,X0_M11,X2_M11,X1_M11
2022-04-25 15:00:00,,0833.7,5.01,0.00,22.3,21.6,00.0,31.3,24.1,11.8,0000.0,0007.31,0003.40,0002.51
2022-04-25 15:01:00,,0833.7,5.01,0.00,22.3,21.6,00.0,31.3,24.1,11.8,0000.0,0007.06,0003.39,0002.49
2022-04-25 15:02:00,,0833.7,5.00,0.00,22.3,21.5,00.0,31.3,24.0,11.9,0000.0,0007.44,0003.35,0002.46
2022-04-25 15:03:00,,0833.7,5.00,0.00,22.2,21.5,00.0,31.3,23.9,12.0,0000.0,0008.46,0003.33,0002.44
2022-04-25 15:04:00,,0833.7,4.98,0.00,22.2,21.4,00.0,31.3,23.9,12.1,0000.0,0009.16,0003.34,0002.41
2022-04-25 15:05:00,,0833.8,5.01,0.00,22.2,21.4,00.0,31.3,23.9,12.0,0000.0,0009.25,0003.34,0002.38
2022-04-25 15:06:00,,0833.7,5.00,0.00,22.2,21.4,00.0,31.2,23.9,11.8,0000.0,0009.19,0003.31,0002.36
2022-04-25 15:07:00,,0833.7,5.00,0.00,22.1,21.4,00.0,31.2,23.9,12.0,0000.0,0009.17,0003.27,0002.33
2022-04-25 15:08:00,,0833.7,5.01,0.00,22.1,21.4,00.0,31.2,23.8,11.9,0000.0,0009.17,0003.28,0002.31
2022-04-25 15:09:00,,0833.7,5.01,0.00,22.1,21.3,00.0,31.2,23.8,11.8,0000.0,0009.11,0003.28,0002.32
2022-04-25 15:10:00,,0833.7,4.98,0.00,22.1,21.3,00.0,31.2,23.8,11.9,0000.0,0009.24,0003.32,0002.34
2022-04-25 15:11:00,,0833.7,5.00,0.00,22.1,21.3,00.0,31.2,23.8,12.0,0000.0,0009.47,0003.35,0002.39
2022-04-25 15:12:00,,0833.7,5.01,0.00,22.1,21.3,00.0,31.2,23.8,11.5,0000.0,0009.76,0003.35,0002.41
2022-04-25 15:13:00,,0833.7,5.00,0.00,22.1,21.3,00.0,31.2,23.8,12.0,0000.0,0009.75,0003.42,0002.42
2022-04-25 15:14:00,,0833.7,5.00,0.00,22.0,21.3,00.0,31.1,23.8,12.5,0000.0,0008.99,0003.42,0002.45
2022-04-25 15:15:00,,0833.7,4.99,0.00,22.0,21.3,00.0,31.1,23.8,12.5,0000.0,0008.36,0003.43,0002.48
2022-04-25 15:16:00,,0833.7,5.00,0.00,22.0,21.3,00.0,31.1,23.8,12.6,0000.0,0008.54,0003.45,0002.52
2022-04-25 15:17:00,,0833.7,5.01,0.00,22.0,21.4,00.0,31.1,23.8,12.5,0000.0,0008.64,0003.48,0002.52
2022-04-25 15:18:00,,0833.7,5.01,0.00,22.0,21.3,00.0,31.1,23.8,12.7,0000.0,0008.62,0003.50,0002.56
2022-04-25 15:19:00,,0833.7,4.98,0.00,22.0,21.3,00.0,31.1,23.8,12.0,0000.0,0008.68,0003.52,0002.58
2022-04-25 15:20:00,,0833.7,5.01,0.00,22.0,21.3,00.0,31.1,23.7,11.8,0000.0,0008.64,0003.51,0002.59
2022-04-25 15:21:00,,0833.7,5.00,0.00,22.0,21.3,00.0,31.1,23.7,11.9,0000.0,0008.54,0003.47,0002.61
2022-04-25 15:22:00,,0833.7,5.01,0.00,22.0,21.3,00.0,31.0,23.7,11.9,0000.0,0008.19,0003.43,0002.60
2022-04-25 15:23:00,,0833.7,4.98,0.00,22.0,21.3,00.0,31.0,23.7,11.9,0000.0,0008.32,0003.41,0002.60
2022-04-25 15:24:00,,0833.7,5.01,0.00,21.9,21.2,00.0,31.0,23.6,11.9,0000.0,0008.09,0003.41,0002.60
2022-04-25 15:25:00,,0833.7,5.01,0.00,21.9,21.2,00.0,31.0,23.6,11.8,0000.0,0008.31,0003.44,0002.59
2022-04-25 15:26:00,,0833.7,4.98,0.00,21.9,21.2,00.0,31.0,23.6,11.9,0000.0,0008.06,0003.44,0002.57
2022-04-25 15:27:00,,0833.7,5.01,0.00,21.9,21.2,00.0,31.0,23.7,12.0,0000.0,0007.85,0003.43,0002.56
2022-04-25 15:28:00,,0833.6,5.00,0.00,21.9,21.3,00.0,31.0,23.8,11.8,0000.0,0008.14,0003.45,0002.57
2022-04-25 15:29:00,,0833.6,4.99,0.00,22.0,21.3,00.0,31.0,23.8,11.8,0000.0,0008.45,0003.45,0002.54
2022-04-25 15:30:00,,0833.6,5.01,0.00,22.0,21.3,00.0,31.0,23.8,12.0,0000.0,0008.37,0003.42,0002.52
2022-04-25 15:31:00,,0833.6,5.01,0.00,22.0,21.4,00.0,31.0,23.8,12.0,0000.0,0008.47,0003.46,0002.51
2022-04-25 15:32:00,,0833.6,4.99,0.00,22.0,21.4,00.0,31.0,23.8,12.1,0000.0,0008.58,0003.49,0002.51
2022-04-25 15:33:00,,0833.6,5.01,0.00,22.0,21.4,00.0,31.0,23.8,11.9,0000.0,0008.69,0003.53,0002.49
2022-04-25 15:34:00,,0833.6,4.99,0.00,22.0,21.4,00.0,31.0,23.8,11.7,0000.0,0008.41,0003.53,0002.48
2022-04-25 15:35:00,,0833.6,5.00,0.00,22.0,21.5,00.0,31.0,23.8,11.7,0000.0,0007.86,0003.48,0002.46
2022-04-25 15:36:00,,0833.6,5.01,0.00,22.0,21.4,00.0,31.0,23.8,11.5,0000.0,0007.56,0003.43,0002.43
2022-04-25 15:37:00,,0833.6,5.00,0.00,22.0,21.4,00.0,31.0,23.7,11.5,0000.0,0007.22,0003.39,0002.40
2022-04-25 15:38:00,,0833.6,4.99,0.00,22.0,21.4,00.0,31.0,23.8,11.6,0000.0,0007.09,0003.36,0002.37
2022-04-25 15:39:00,,0833.6,5.00,0.00,22.0,21.4,00.0,31.0,23.7,11.6,0000.0,0006.44,0003.31,0002.35
2022-04-25 15:40:00,,0833.6,5.00,0.00,22.0,21.4,00.0,31.0,23.8,11.6,0000.0,0005.84,0003.32,0002.35
2022-04-25 15:41:00,,0833.6,5.00,0.00,22.0,21.4,00.0,31.0,23.8,11.5,0000.0,0006.09,0003.35,0002.35
2022-04-25 15:42:00,,0833.6,5.00,0.00,22.0,21.4,00.0,31.0,23.7,11.6,0000.0,0006.24,0003.36,0002.35
2022-04-25 15:43:00,,0833.6,4.99,0.00,22.0,21.4,00.0,31.0,23.7,11.9,0000.0,0005.86,0003.31,0002.33
2022-04-25 15:44:00,,0833.6,5.00,0.00,22.0,21.4,00.0,31.0,23.7,11.6,0000.0,0005.59,0003.29,0002.33
2022-04-25 15:45:00,,0833.6,5.01,0.00,22.0,21.4,00.0,31.0,23.7,11.5,0000.0,0005.55,0003.28,0002.33
2022-04-25 15:46:00,,0833.6,5.00,0.00,22.0,21.3,00.0,31.0,23.7,11.4,0000.0,0005.60,0003.31,0002.35
2022-04-25 15:47:00,,0833.6,5.00,0.00,22.0,21.3,00.0,31.0,23.7,11.3,0000.0,0005.50,0003.29,0002.36
2022-04-25 15:48:00,,0833.6,4.99,0.00,22.0,21.3,00.0,31.0,23.7,11.3,0000.0,0005.48,0003.29,0002.38
2022-04-25 15:49:00,,0833.6,5.00,0.00,22.0,21.3,00.0,30.9,23.7,11.2,0000.0,0006.00,0003.27,0002.39
2022-04-25 15:50:00,,0833.6,5.01,0.00,21.9,21.3,00.0,30.9,23.7,11.0,0000.0,0007.38,0003.31,0002.40
2022-04-25 15:51:00,,0833.6,4.98,0.00,22.0,21.3,00.0,31.0,23.7,11.1,0000.0,0007.59,0003.30,0002.40
2022-04-25 15:52:00,,0833.6,5.00,0.00,22.0,21.3,00.0,31.0,23.7,11.0,0000.0,0008.00,0003.27,0002.39
2022-04-25 15:53:00,,0833.6,5.01,0.00,22.0,21.4,00.0,31.0,23.7,11.2,0000.0,0007.86,0003.23,0002.40
2022-04-25 15:54:00,,0833.6,5.01,0.00,22.0,21.3,00.0,31.0,23.7,11.1,0000.0,0007.83,0003.23,0002.43
2022-04-25 15:55:00,,0833.7,4.98,0.00,22.0,21.3,00.0,31.0,23.7,11.3,0000.0,0007.86,0003.24,0002.45
2022-04-25 15:56:00,,0833.6,4.99,0.00,21.9,21.3,00.0,30.9,23.7,11.3,0000.0,0008.56,0003.26,0002.47
2022-04-25 15:57:00,,0833.6,5.00,0.00,21.9,21.2,00.0,30.9,23.6,11.3,0000.0,0009.05,0003.29,0002.50
2022-04-25 15:58:00,,0833.6,5.00,0.00,21.9,21.2,00.0,30.9,23.6,11.5,0000.0,0009.51,0003.30,0002.52
2022-04-25 15:59:00,,0833.6,5.00,0.00,21.9,21.2,00.0,30.9,23.6,11.4,0000.0,0009.75,0003.33,0002.54
